Location: Dalton
(34.7700°N, 84.9700°W)
Time: 01:21:17
(UTC-05:00)

OTV 5 (USA 277) - Pass Details

Date: 08 October 2017
Orbit: 404 x 417 km, 43.0° (Epoch: 07 September)

Event Time Altitude Azimuth Distance (km) Brightness Sun altitude
Rises 21:22:15 0° 255° (WSW) 2,346 ? -27.1°
Reaches altitude 10° 21:24:25 10° 261° (W) 1,484 ? -27.5°
Enters shadow 21:25:42 21° 270° (W) 999 ? -27.8°
